Bartow, FL

6:35 PM EST on November 17, 2017 (GMT -0500)
Bartow Municipal

Weather History for KBOW - October, 2012

Change the Weather History Date:

Friday, October 12, 2012

  Actual Average Record
Temperature  
Mean Temperature 75 °F -  
Max Temperature 84 °F 85 °F 93 °F (1959)
Min Temperature 66 °F 65 °F 54 °F (1951)
Cooling Degree Days 10    
Growing Degree Days 25 (Base 50)    
Moisture  
Dew Point 60 °F    
Average Humidity 67    
Maximum Humidity 88    
Minimum Humidity 37    
Precipitation  
Precipitation 0.00 in - - ()
Sea Level Pressure  
Sea Level Pressure 30.15 in    
Wind  
Wind Speed 2 mph (NNE)    
Max Wind Speed 14 mph    
Max Gust Speed 20 mph    
Visibility 10 miles    
Events      
Averages and records for this station are not official NWS values.
T = Trace of Precipitation, MM = Missing Value Source: NWS Daily Summary

Daily Weather History Graph

Daily Weather History Graph

Search for Another Location

Airport or City:

Trip Planner

Search our weather history database for the weather conditions in past years. The results will help you decide how hot, cold, wet, or windy it might be!

Date:

Astronomy

Oct. 12, 2012 Rise Set
Actual Time 7:26 AM EDT 7:00 PM EDT
Civil Twilight 7:02 AM EDT 7:24 PM EDT
Nautical Twilight 6:35 AM EDT 7:51 PM EDT
Astronomical Twilight 6:08 AM EDT 8:18 PM EDT
Moon 4:21 AM EDT (10/12) 4:58 PM EDT (10/12)
Length of Visible Light 12h 21m
Length of Day
11h 34m
Waning Crescent, 11% of the Moon is Illuminated
Oct 12
Waning Crescent
Oct 15
New
Oct 21
First Quarter
Oct 29
Full
Nov 6
Last Quarter

Hourly Weather History & Observations

Time (EDT) Temp. Heat Index Dew Point Humidity Pressure Visibility Wind Dir Wind Speed Gust Speed Precip Events Conditions
12:15 AM 71.6 °F - 64.4 °F 78% 30.17 in 10.0 mi Calm Calm - N/A   Mostly Cloudy
12:35 AM 71.6 °F - 64.4 °F 78% 30.16 in 10.0 mi Calm Calm - N/A   Mostly Cloudy
12:55 AM 69.8 °F - 62.6 °F 78% 30.16 in 9.0 mi Calm Calm - N/A   Mostly Cloudy
1:35 AM 69.8 °F - 62.6 °F 78% 30.16 in 10.0 mi North 4.6 mph - N/A   Mostly Cloudy
1:55 AM 69.8 °F - 62.6 °F 78% 30.15 in 10.0 mi Calm Calm - N/A   Mostly Cloudy
2:15 AM 69.8 °F - 62.6 °F 78% 30.16 in 10.0 mi Calm Calm - N/A   Overcast
2:35 AM 69.8 °F - 62.6 °F 78% 30.15 in 10.0 mi Calm Calm - N/A   Overcast
2:55 AM 69.8 °F - 64.4 °F 83% 30.15 in 10.0 mi Calm Calm - N/A   Mostly Cloudy
3:15 AM 69.8 °F - 64.4 °F 83% 30.14 in 10.0 mi North 6.9 mph - N/A   Mostly Cloudy
3:35 AM 69.8 °F - 64.4 °F 83% 30.13 in 10.0 mi North 5.8 mph - N/A   Mostly Cloudy
3:55 AM 68.0 °F - 64.4 °F 88% 30.13 in 10.0 mi Calm Calm - N/A   Mostly Cloudy
4:15 AM 68.0 °F - 64.4 °F 88% 30.13 in 10.0 mi Calm Calm - N/A   Mostly Cloudy
4:55 AM 68.0 °F - 64.4 °F 88% 30.13 in 10.0 mi North 6.9 mph - N/A   Mostly Cloudy
5:15 AM 68.0 °F - 64.4 °F 88% 30.13 in 10.0 mi North 4.6 mph - N/A   Mostly Cloudy
5:35 AM 68.0 °F - 64.4 °F 88% 30.14 in 10.0 mi Calm Calm - N/A   Mostly Cloudy
5:55 AM 68.0 °F - 64.4 °F 88% 30.14 in 10.0 mi North 5.8 mph - N/A   Mostly Cloudy
6:15 AM 68.0 °F - 62.6 °F 83% 30.15 in 10.0 mi Calm Calm - N/A   Mostly Cloudy
6:55 AM 66.2 °F - 62.6 °F 88% 30.16 in 10.0 mi Calm Calm - N/A   Mostly Cloudy
7:15 AM 68.0 °F - 62.6 °F 83% 30.16 in 9.0 mi Calm Calm - N/A   Mostly Cloudy
7:30 AM 68.0 °F - 62.6 °F 83% 30.17 in 10.0 mi NNE 4.6 mph - N/A   Clear
7:54 AM 68.0 °F - 62.6 °F 83% 30.17 in 10.0 mi North 4.6 mph - N/A   Clear
8:50 AM 69.8 °F - 62.6 °F 78% 30.19 in 12.0 mi North 5.8 mph - N/A   Clear
10:51 AM 77.0 °F - 64.4 °F 65% 30.20 in 12.0 mi North 13.8 mph - N/A   Scattered Clouds
3:55 PM 84.2 °F 83.5 °F 57.2 °F 40% 30.12 in 9.0 mi NNE 10.4 mph - N/A   Mostly Cloudy
4:15 PM 84.2 °F 83.0 °F 55.4 °F 37% 30.12 in 10.0 mi NNE 11.5 mph 16.1 mph N/A   Scattered Clouds
4:35 PM 84.2 °F 83.0 °F 55.4 °F 37% 30.12 in 8.0 mi NNE 3.5 mph - N/A   Partly Cloudy
4:55 PM 82.4 °F 81.7 °F 55.4 °F 39% 30.11 in 9.0 mi ENE 12.7 mph 19.6 mph N/A   Mostly Cloudy
5:15 PM 82.4 °F 81.7 °F 55.4 °F 39% 30.11 in 9.0 mi NE 3.5 mph - N/A   Mostly Cloudy
5:35 PM 82.4 °F 81.7 °F 55.4 °F 39% 30.12 in 8.0 mi NE 8.1 mph - N/A   Mostly Cloudy
6:15 PM 80.6 °F 80.5 °F 55.4 °F 42% 30.12 in 9.0 mi NE 8.1 mph - N/A   Scattered Clouds
6:55 PM 78.8 °F - 55.4 °F 44% 30.14 in 10.0 mi Calm Calm - N/A   Mostly Cloudy
7:15 PM 77.0 °F - 55.4 °F 47% 30.14 in 10.0 mi Calm Calm - N/A   Partly Cloudy
7:35 PM 75.2 °F - 55.4 °F 50% 30.14 in 10.0 mi Calm Calm - N/A   Scattered Clouds
7:55 PM 75.2 °F - 55.4 °F 50% 30.15 in 10.0 mi Calm Calm - N/A   Scattered Clouds
8:15 PM 75.2 °F - 55.4 °F 50% 30.16 in 10.0 mi Calm Calm - N/A   Scattered Clouds
8:35 PM 73.4 °F - 55.4 °F 53% 30.16 in 10.0 mi Calm Calm - N/A   Scattered Clouds
8:55 PM 73.4 °F - 55.4 °F 53% 30.17 in 10.0 mi NE 3.5 mph - N/A   Mostly Cloudy
9:15 PM 73.4 °F - 55.4 °F 53% 30.18 in 10.0 mi Calm Calm - N/A   Scattered Clouds
9:35 PM 71.6 °F - 57.2 °F 60% 30.18 in 10.0 mi Calm Calm - N/A   Partly Cloudy
10:15 PM 71.6 °F - 57.2 °F 60% 30.19 in 10.0 mi Calm Calm - N/A   Partly Cloudy
10:35 PM 69.8 °F - 59.0 °F 68% 30.20 in 10.0 mi Calm Calm - N/A   Partly Cloudy
10:55 PM 69.8 °F - 59.0 °F 68% 30.20 in 10.0 mi Calm Calm - N/A   Scattered Clouds
11:15 PM 69.8 °F - 60.8 °F 73% 30.19 in 9.0 mi Calm Calm - N/A   Scattered Clouds
11:55 PM 69.8 °F - 60.8 °F 73% 30.19 in 10.0 mi NE 5.8 mph - N/A   Clear